Simultaneous Nadir Overpasses (SNOs) Predictions

Prediction of SNOs between AQUA and GOES-15 Satellite Orbit:

Table of predicted SNOs for the next 14.0 days since TLE Epoch: 5/20/2016
Index Date Time (AQUA) AQUA Lat,Lon GOES-15 Lat,Lon Distance(km) Time Diff (sec)
1 05/21/2016 10:19:56 -0.73,-131.19 0.04,-134.73 402.43 80
2 05/21/2016 22:41:19 -0.38,-136.38 -0.03,-134.70 191.06 80
3 05/23/2016 22:29:03 0.22,-133.40 -0.03,-134.61 136.88 80
4 05/24/2016 10:50:18 0.86,-138.56 0.02,-134.60 450.63 80
5 05/25/2016 22:16:47 0.82,-130.42 -0.03,-134.51 464.28 80
6 05/26/2016 10:38:02 0.25,-135.58 0.02,-134.50 123.49 80
7 05/28/2016 10:25:46 -0.36,-132.61 0.02,-134.39 203.13 80
8 05/28/2016 22:47:09 -0.73,-137.80 -0.01,-134.35 391.70 80
9 05/30/2016 22:34:52 -0.17,-134.81 -0.02,-134.24 65.76 80
10 06/01/2016 22:22:36 0.46,-131.84 -0.01,-134.12 259.64 80
11 06/02/2016 10:43:51 0.61,-136.99 0.00,-134.11 327.96 80




NCC Satellite Simultaneous Nadir Overpasses (SNOs) Prediction Service
